ONEWEB-0126, 47272

Orbit data source: Space-Track

ONEWEB-0126, 47272 is a payload satellite owned by One Web (UK) in LEO that was launched on Fri, 18 Dec 2020 UTC via a SOYUZ-2-1B launch vehicle from the Vostochny Cosmodrome (VOSTO). Payload-class satellites include a variety of spacecraft equipped with specific instruments for various scientific and technological missions. These include communications satellites like Starlink; space stations such as the ISS; scientific satellites like the Hubble; Earth observation satellites from companies like Planet Labs, Umbra, and HawkEye 360; GPS; miniature CubeSats for education and research; and military/defense satellites.

Loading next visibility...
Identifier
47272, 2020-100Q
Orbit
LEO
Country
Flag of UKUK
Related business
Manufacturer
One Web
Mission
Operational Commercial Communications
Bus & Motor
ARROW, Unknown motor
Mass
148 kg wet, ~140 kg dry
Launch date (UTC)
2020-12-18 (5 years ago)
Launch vehicle
SOYUZ-2-1B
Launch site
Vostochny Cosmodrome (VOSTO)
Object type
Payload
Rocket body
Debris
Shape & HBR
Trap Box + 2 Pan, 6.7 m
Radar Cross Section
3.464 m², Large (>1 m²)

Expand to show TLE details & history
Last TLE update: 9 hours ago

TLE from 9 hours ago
0 ONEWEB-0126
1 47272U 20100Q   26095.31234734 -.00000529  00000-0 -15064-2 0  9990
2 47272  87.9013   5.1451 0001789  73.9256 286.2069 13.12442863255149
Epoch: 2026-04-05T07:29Z
TLE epoch observation values (Epoch: 2026-04-05T07:29:46.810Z)
Latitude
-0.00005°
Longitude
59.08048°
Altitude
1,216.236 km
Speed
7.246 km/s
True Right ascension
00h 20m 34s
True Declination
0° 00' 00"
Sunlit
Object was in daylight at epoch
Visualization orbit readout
Latitude
Unknown
Longitude
Unknown
Altitude
Unknown
Speed
Unknown
Apparent Right ascension
Unknown
Apparent Declination
Unknown
Sunlit
N/A
Visualization observer readout
Local Sidereal Time
22:47:19
Azimuth
Unknown
Elevation
Unknown
Doppler factor
Unknown
Orbital elements
Apogee altitude
1,212.198 km
Perigee altitude
1,209.483 km
Semi-major axis
7,588.977 km
Eccentricity
0.00018
Inclination
87.9013°
RAAN
5.1451°
Arg. of periapsis
73.9256°
True anomaly
286.18721°
Mean anomaly
286.2069°
Eccentric anomaly
286.19706°
Mean motion
3.28298 °/min
Orbital period
109.66 mins
BSTAR
-0.0015064
Loading maneuver chart data...
Computing Atmospheric mass density...
Loading historical data...
Loading historical data...
Loading historical data...
Loading historical data...
Loading historical data...
Loading historical data...
Loading historical data...

Documentation

Showing up to 5 results
|